Time,TemperatureF,DewpointF,PressureIn,WindDirection,WindDirectionDegrees,WindSpeedMPH,WindSpeedGustMPH,Humidity,HourlyPrecipIn,Conditions,Clouds,dailyrainin,SoftwareType,DateUTC
2013-09-14 00:02:00,61.2,52.9,30.07,North,360,0.0,0.0,74,0.00,,,0.00,VWS V13.01,2013-09-14 05:02:00,
2013-09-14 00:07:00,61.2,53.6,30.07,North,1,0.0,0.0,76,0.00,,,0.00,VWS V13.01,2013-09-14 05:07:00,
2013-09-14 00:12:00,61.0,53.4,30.07,North,1,0.0,0.0,76,0.00,,,0.00,VWS V13.01,2013-09-14 05:12:00,
2013-09-14 00:17:00,60.8,53.6,30.07,North,1,0.0,0.0,77,0.00,,,0.00,VWS V13.01,2013-09-14 05:17:00,
2013-09-14 00:22:00,60.8,53.6,30.07,North,1,0.0,0.0,77,0.00,,,0.00,VWS V13.01,2013-09-14 05:22:00,
2013-09-14 00:27:00,61.0,53.8,30.07,North,1,0.0,0.0,77,0.00,,,0.00,VWS V13.01,2013-09-14 05:27:00,
2013-09-14 00:32:00,61.2,53.6,30.07,North,1,0.0,0.0,76,0.00,,,0.00,VWS V13.01,2013-09-14 05:32:00,
2013-09-14 00:37:00,61.2,53.6,30.07,North,1,0.0,0.0,76,0.00,,,0.00,VWS V13.01,2013-09-14 05:37:00,
2013-09-14 00:42:00,61.4,53.8,30.07,North,1,0.0,0.0,76,0.00,,,0.00,VWS V13.01,2013-09-14 05:42:00,
2013-09-14 00:47:00,61.4,53.4,30.07,North,1,0.0,0.0,75,0.00,,,0.00,VWS V13.01,2013-09-14 05:47:00,
2013-09-14 00:52:00,61.2,53.6,30.07,North,1,0.0,0.0,76,0.00,,,0.00,VWS V13.01,2013-09-14 05:52:00,
2013-09-14 00:57:00,61.2,53.6,30.07,North,1,0.0,0.0,76,0.00,,,0.00,VWS V13.01,2013-09-14 05:57:00,
2013-09-14 01:02:00,61.0,53.4,30.07,North,1,0.0,0.0,76,0.00,,,0.00,VWS V13.01,2013-09-14 06:02:00,
2013-09-14 01:07:00,61.0,53.4,30.07,North,1,0.0,0.0,76,0.00,,,0.00,VWS V13.01,2013-09-14 06:07:00,
2013-09-14 01:12:00,61.0,53.8,30.07,North,1,0.0,0.0,77,0.00,,,0.00,VWS V13.01,2013-09-14 06:12:00,
2013-09-14 01:17:00,60.8,53.2,30.07,North,1,0.0,0.0,76,0.00,,,0.00,VWS V13.01,2013-09-14 06:17:00,
2013-09-14 01:22:00,60.7,53.4,30.07,North,1,0.0,0.0,77,0.00,,,0.00,VWS V13.01,2013-09-14 06:22:00,
2013-09-14 01:27:00,60.5,53.2,30.07,North,1,0.0,0.0,77,0.00,,,0.00,VWS V13.01,2013-09-14 06:27:00,
2013-09-14 01:32:00,60.1,53.2,30.07,North,1,0.0,0.0,78,0.00,,,0.00,VWS V13.01,2013-09-14 06:32:00,
2013-09-14 01:37:00,59.9,53.4,30.07,North,1,0.0,0.0,79,0.00,,,0.00,VWS V13.01,2013-09-14 06:37:00,
2013-09-14 01:42:00,59.6,53.4,30.07,North,1,0.0,0.0,80,0.00,,,0.00,VWS V13.01,2013-09-14 06:42:00,
2013-09-14 01:47:00,59.2,53.1,30.07,North,1,0.0,0.0,80,0.00,,,0.00,VWS V13.01,2013-09-14 06:47:00,
2013-09-14 01:52:00,58.9,52.7,30.07,North,1,0.0,0.0,80,0.00,,,0.00,VWS V13.01,2013-09-14 06:52:00,
2013-09-14 01:57:00,58.7,52.9,30.07,North,1,0.0,0.0,81,0.00,,,0.00,VWS V13.01,2013-09-14 06:57:00,
2013-09-14 02:02:00,58.7,53.2,30.10,North,1,0.0,0.0,82,0.00,,,0.00,VWS V13.01,2013-09-14 07:02:00,
2013-09-14 02:07:00,58.5,53.7,30.10,North,1,0.0,0.0,84,0.00,,,0.00,VWS V13.01,2013-09-14 07:07:00,
2013-09-14 02:12:00,58.5,53.4,30.10,North,1,0.0,0.0,83,0.00,,,0.00,VWS V13.01,2013-09-14 07:12:00,
2013-09-14 02:17:00,58.3,53.2,30.10,North,1,0.0,0.0,83,0.00,,,0.00,VWS V13.01,2013-09-14 07:17:00,
2013-09-14 02:22:00,58.0,52.8,30.10,North,1,0.0,0.0,83,0.00,,,0.00,VWS V13.01,2013-09-14 07:22:00,
2013-09-14 02:26:00,58.0,53.2,30.10,North,1,0.0,0.0,84,0.00,,,0.00,VWS V13.01,2013-09-14 07:26:00,
2013-09-14 02:31:00,58.0,54.1,30.10,North,1,0.0,0.0,87,0.00,,,0.00,VWS V13.01,2013-09-14 07:31:00,
2013-09-14 02:36:00,58.1,54.6,30.10,NE,37,0.0,0.0,88,0.00,,,0.00,VWS V13.01,2013-09-14 07:36:00,
2013-09-14 02:41:00,58.1,54.6,30.10,NE,37,0.0,0.0,88,0.00,,,0.00,VWS V13.01,2013-09-14 07:41:00,
2013-09-14 02:46:00,58.1,54.6,30.07,NE,37,0.0,0.0,88,0.00,,,0.00,VWS V13.01,2013-09-14 07:46:00,
2013-09-14 02:51:00,58.0,54.4,30.07,NE,37,0.0,0.0,88,0.00,,,0.00,VWS V13.01,2013-09-14 07:51:00,
2013-09-14 02:56:00,57.8,54.3,30.07,NE,37,0.0,0.0,88,0.00,,,0.00,VWS V13.01,2013-09-14 07:56:00,
2013-09-14 03:01:00,57.6,54.4,30.10,NE,37,0.0,0.0,89,0.00,,,0.00,VWS V13.01,2013-09-14 08:01:00,
2013-09-14 03:06:00,57.6,55.3,30.10,NE,37,0.0,0.0,92,0.00,,,0.00,VWS V13.01,2013-09-14 08:06:00,
2013-09-14 03:11:00,57.2,55.2,30.10,NE,37,0.0,0.0,93,0.00,,,0.00,VWS V13.01,2013-09-14 08:11:00,
2013-09-14 03:16:00,56.9,54.9,30.10,NE,37,0.0,0.0,93,0.00,,,0.00,VWS V13.01,2013-09-14 08:16:00,
2013-09-14 03:21:00,56.7,55.0,30.10,NE,37,0.0,0.0,94,0.00,,,0.00,VWS V13.01,2013-09-14 08:21:00,
2013-09-14 03:26:00,56.7,55.3,30.10,NE,37,0.0,0.0,95,0.00,,,0.00,VWS V13.01,2013-09-14 08:26:00,
2013-09-14 03:31:00,56.7,55.3,30.07,NE,37,0.0,0.0,95,0.00,,,0.00,VWS V13.01,2013-09-14 08:31:00,
2013-09-14 03:36:00,56.7,55.3,30.07,NE,37,0.0,0.0,95,0.00,,,0.00,VWS V13.01,2013-09-14 08:36:00,
2013-09-14 03:41:00,56.5,55.1,30.07,NE,37,0.0,0.0,95,0.00,,,0.00,VWS V13.01,2013-09-14 08:41:00,
2013-09-14 03:46:00,56.3,54.9,30.10,NE,37,0.0,0.0,95,0.00,,,0.00,VWS V13.01,2013-09-14 08:46:00,
2013-09-14 03:51:00,56.2,54.5,30.10,NE,37,0.0,0.0,94,0.00,,,0.00,VWS V13.01,2013-09-14 08:51:00,
2013-09-14 03:56:00,56.2,54.5,30.10,NE,37,0.0,0.0,94,0.00,,,0.00,VWS V13.01,2013-09-14 08:56:00,
2013-09-14 04:01:00,56.0,54.3,30.10,NE,37,0.0,0.0,94,0.00,,,0.00,VWS V13.01,2013-09-14 09:01:00,
2013-09-14 04:06:00,55.8,54.1,30.10,NE,37,0.0,0.0,94,0.00,,,0.00,VWS V13.01,2013-09-14 09:06:00,
2013-09-14 04:11:00,55.6,53.9,30.10,NE,37,0.0,0.0,94,0.00,,,0.00,VWS V13.01,2013-09-14 09:11:00,
2013-09-14 04:16:00,55.6,54.2,30.10,NE,37,0.0,0.0,95,0.00,,,0.00,VWS V13.01,2013-09-14 09:16:00,
2013-09-14 04:21:00,55.4,54.6,30.10,NE,37,0.0,0.0,97,0.00,,,0.00,VWS V13.01,2013-09-14 09:21:00,
2013-09-14 04:26:00,55.3,55.0,30.10,NE,37,0.0,0.0,99,0.00,,,0.00,VWS V13.01,2013-09-14 09:26:00,
2013-09-14 04:31:00,54.9,54.6,30.10,NE,37,0.0,0.0,99,0.00,,,0.00,VWS V13.01,2013-09-14 09:31:00,
2013-09-14 04:36:00,54.9,54.6,30.10,NE,37,0.0,0.0,99,0.00,,,0.00,VWS V13.01,2013-09-14 09:36:00,
2013-09-14 04:41:00,54.9,54.6,30.10,NE,37,0.0,0.0,99,0.00,,,0.00,VWS V13.01,2013-09-14 09:41:00,
2013-09-14 04:46:00,54.7,54.7,30.10,NE,37,0.0,0.0,100,0.00,,,0.00,VWS V13.01,2013-09-14 09:46:00,
2013-09-14 04:51:00,54.9,54.9,30.10,NE,37,0.0,0.0,100,0.00,,,0.00,VWS V13.01,2013-09-14 09:51:00,
2013-09-14 04:56:00,54.9,54.9,30.10,NE,37,0.0,0.0,100,0.00,,,0.00,VWS V13.01,2013-09-14 09:56:00,
2013-09-14 05:01:00,54.7,54.7,30.10,NE,37,0.0,0.0,100,0.00,,,0.00,VWS V13.01,2013-09-14 10:01:00,
2013-09-14 05:06:00,54.5,54.5,30.10,NE,37,0.0,0.0,100,0.00,,,0.00,VWS V13.01,2013-09-14 10:06:00,
2013-09-14 05:11:00,54.5,54.5,30.10,NE,37,0.0,0.0,100,0.00,,,0.00,VWS V13.01,2013-09-14 10:11:00,
2013-09-14 05:16:00,54.5,54.5,30.10,NE,37,0.0,0.0,100,0.00,,,0.00,VWS V13.01,2013-09-14 10:16:00,
2013-09-14 05:21:00,54.5,54.5,30.10,NE,37,0.0,0.0,100,0.00,,,0.00,VWS V13.01,2013-09-14 10:21:00,
2013-09-14 05:26:00,54.5,54.5,30.10,NE,37,0.0,0.0,100,0.00,,,0.00,VWS V13.01,2013-09-14 10:26:00,
2013-09-14 05:31:00,54.5,54.5,30.10,NE,37,0.0,0.0,100,0.00,,,0.00,VWS V13.01,2013-09-14 10:31:00,
2013-09-14 05:36:00,54.4,54.4,30.10,NE,37,0.0,0.0,100,0.00,,,0.00,VWS V13.01,2013-09-14 10:36:00,
2013-09-14 05:41:00,54.2,54.2,30.10,NE,37,0.0,0.0,100,0.00,,,0.00,VWS V13.01,2013-09-14 10:41:00,
2013-09-14 05:46:00,54.2,54.2,30.10,NE,37,0.0,0.0,100,0.00,,,0.00,VWS V13.01,2013-09-14 10:46:00,
2013-09-14 05:51:00,54.0,54.0,30.10,NE,37,0.0,0.0,100,0.00,,,0.00,VWS V13.01,2013-09-14 10:51:00,
2013-09-14 05:56:00,53.8,53.8,30.10,NE,37,0.0,0.0,100,0.00,,,0.00,VWS V13.01,2013-09-14 10:56:00,
2013-09-14 06:01:00,53.6,53.6,30.10,NE,37,0.0,0.0,100,0.00,,,0.00,VWS V13.01,2013-09-14 11:01:00,
2013-09-14 06:06:00,53.5,53.5,30.10,NE,37,0.0,0.0,100,0.00,,,0.00,VWS V13.01,2013-09-14 11:06:00,
2013-09-14 06:11:00,53.5,53.5,30.10,NE,37,0.0,0.0,100,0.00,,,0.00,VWS V13.01,2013-09-14 11:11:00,
2013-09-14 06:16:00,53.6,53.6,30.10,NE,37,0.0,0.0,100,0.00,,,0.00,VWS V13.01,2013-09-14 11:16:00,
2013-09-14 06:21:00,53.5,53.5,30.10,NE,37,0.0,0.0,100,0.00,,,0.00,VWS V13.01,2013-09-14 11:21:00,
2013-09-14 06:26:00,53.5,53.5,30.10,NE,37,0.0,0.0,100,0.00,,,0.00,VWS V13.01,2013-09-14 11:26:00,
2013-09-14 06:31:00,53.3,53.3,30.10,NE,37,0.0,0.0,100,0.00,,,0.00,VWS V13.01,2013-09-14 11:31:00,
2013-09-14 06:36:00,53.5,53.5,30.10,NE,37,0.0,0.0,100,0.00,,,0.00,VWS V13.01,2013-09-14 11:36:00,
2013-09-14 06:41:00,53.6,53.6,30.10,NE,37,0.0,0.0,100,0.00,,,0.00,VWS V13.01,2013-09-14 11:41:00,
2013-09-14 06:46:00,53.5,53.5,30.13,NE,37,0.0,0.0,100,0.00,,,0.00,VWS V13.01,2013-09-14 11:46:00,
2013-09-14 06:51:00,53.3,53.3,30.13,NE,37,0.0,0.0,100,0.00,,,0.00,VWS V13.01,2013-09-14 11:51:00,
2013-09-14 06:56:00,53.3,53.3,30.13,NE,37,0.0,0.0,100,0.00,,,0.00,VWS V13.01,2013-09-14 11:56:00,
2013-09-14 07:01:00,53.3,53.3,30.13,NE,37,0.0,0.0,100,0.00,,,0.00,VWS V13.01,2013-09-14 12:01:00,
2013-09-14 07:06:00,53.1,53.1,30.13,NE,37,0.0,0.0,100,0.00,,,0.00,VWS V13.01,2013-09-14 12:06:00,
2013-09-14 07:11:00,53.1,53.1,30.13,NE,37,0.0,0.0,100,0.00,,,0.00,VWS V13.01,2013-09-14 12:11:00,
2013-09-14 07:16:00,53.1,53.1,30.13,NE,37,0.0,0.0,100,0.00,,,0.00,VWS V13.01,2013-09-14 12:16:00,
2013-09-14 07:21:00,53.1,53.1,30.13,NE,37,0.0,0.0,100,0.00,,,0.00,VWS V13.01,2013-09-14 12:21:00,
2013-09-14 07:26:00,53.1,53.1,30.13,NE,37,0.0,0.0,100,0.00,,,0.00,VWS V13.01,2013-09-14 12:26:00,
2013-09-14 07:31:00,53.1,53.1,30.13,NE,37,0.0,0.0,100,0.00,,,0.00,VWS V13.01,2013-09-14 12:31:00,
2013-09-14 07:36:00,53.3,53.3,30.13,NE,37,0.0,0.0,100,0.00,,,0.00,VWS V13.01,2013-09-14 12:36:00,
2013-09-14 07:41:00,53.5,53.5,30.13,NE,37,0.0,0.0,100,0.00,,,0.00,VWS V13.01,2013-09-14 12:41:00,
2013-09-14 07:45:00,53.8,53.8,30.13,NE,37,0.0,0.0,100,0.00,,,0.00,VWS V13.01,2013-09-14 12:45:00,
2013-09-14 07:50:00,54.2,54.2,30.13,NE,37,0.0,0.0,100,0.00,,,0.00,VWS V13.01,2013-09-14 12:50:00,
2013-09-14 07:55:00,54.7,54.7,30.13,NE,37,0.0,0.0,100,0.00,,,0.00,VWS V13.01,2013-09-14 12:55:00,
2013-09-14 08:00:00,55.3,55.3,30.13,NE,37,0.0,0.0,100,0.00,,,0.00,VWS V13.01,2013-09-14 13:00:00,
2013-09-14 08:05:00,56.2,56.2,30.13,NE,37,0.0,0.0,100,0.00,,,0.00,VWS V13.01,2013-09-14 13:05:00,
2013-09-14 08:10:00,56.7,56.7,30.13,NE,37,0.0,0.0,100,0.00,,,0.00,VWS V13.01,2013-09-14 13:10:00,
2013-09-14 08:15:00,57.8,57.8,30.13,NE,37,0.0,0.0,100,0.00,,,0.00,VWS V13.01,2013-09-14 13:15:00,
2013-09-14 08:20:00,58.7,58.7,30.13,NNE,33,0.0,0.0,100,0.00,,,0.00,VWS V13.01,2013-09-14 13:20:00,
2013-09-14 08:25:00,59.9,59.1,30.13,NNE,33,0.0,0.0,97,0.00,,,0.00,VWS V13.01,2013-09-14 13:25:00,
2013-09-14 08:30:00,61.4,59.6,30.13,NE,36,0.0,0.0,94,0.00,,,0.00,VWS V13.01,2013-09-14 13:30:00,
2013-09-14 08:35:00,62.6,55.0,30.13,NE,38,0.0,0.0,76,0.00,,,0.00,VWS V13.01,2013-09-14 13:35:00,
2013-09-14 08:40:00,63.9,56.2,30.13,East,84,0.0,0.0,76,0.00,,,0.00,VWS V13.01,2013-09-14 13:40:00,
2013-09-14 08:45:00,65.0,55.4,30.13,NNE,18,2.2,2.7,71,0.00,,,0.00,VWS V13.01,2013-09-14 13:45:00,
2013-09-14 08:50:00,65.7,54.9,30.13,NE,42,0.0,3.1,68,0.00,,,0.00,VWS V13.01,2013-09-14 13:50:00,
2013-09-14 08:55:00,66.2,54.6,30.13,NE,55,2.7,3.1,66,0.00,,,0.00,VWS V13.01,2013-09-14 13:55:00,
2013-09-14 09:00:00,67.0,55.2,30.13,NE,36,0.0,0.0,66,0.00,,,0.00,VWS V13.01,2013-09-14 14:00:00,
2013-09-14 09:05:00,67.5,54.5,30.13,NE,37,4.9,4.9,63,0.00,,,0.00,VWS V13.01,2013-09-14 14:05:00,
2013-09-14 09:10:00,67.3,54.3,30.13,East,101,4.0,4.0,63,0.00,,,0.00,VWS V13.01,2013-09-14 14:10:00,
2013-09-14 09:15:00,67.7,54.2,30.13,ESE,119,4.0,5.8,62,0.00,,,0.00,VWS V13.01,2013-09-14 14:15:00,
2013-09-14 09:20:00,68.0,54.5,30.13,NNW,339,4.9,4.9,62,0.00,,,0.00,VWS V13.01,2013-09-14 14:20:00,
2013-09-14 09:25:00,68.6,55.1,30.13,East,96,3.1,3.6,62,0.00,,,0.00,VWS V13.01,2013-09-14 14:25:00,
2013-09-14 09:30:00,68.8,54.8,30.16,East,85,4.0,4.0,61,0.00,,,0.00,VWS V13.01,2013-09-14 14:30:00,
2013-09-14 09:35:00,68.9,55.0,30.16,ENE,66,3.1,3.1,61,0.00,,,0.00,VWS V13.01,2013-09-14 14:35:00,
2013-09-14 09:40:00,69.3,55.3,30.16,East,98,5.4,5.4,61,0.00,,,0.00,VWS V13.01,2013-09-14 14:40:00,
2013-09-14 09:45:00,69.5,55.0,30.16,NNE,13,4.0,4.0,60,0.00,,,0.00,VWS V13.01,2013-09-14 14:45:00,
2013-09-14 09:50:00,69.8,55.3,30.16,ENE,77,2.7,2.7,60,0.00,,,0.00,VWS V13.01,2013-09-14 14:50:00,
2013-09-14 09:55:00,70.2,55.7,30.16,NNE,20,4.0,4.0,60,0.00,,,0.00,VWS V13.01,2013-09-14 14:55:00,
2013-09-14 10:00:00,70.7,56.2,30.16,North,9,3.1,3.6,60,0.00,,,0.00,VWS V13.01,2013-09-14 15:00:00,
2013-09-14 10:05:00,70.9,55.9,30.16,ESE,106,4.0,4.0,59,0.00,,,0.00,VWS V13.01,2013-09-14 15:05:00,
2013-09-14 10:10:00,70.7,54.8,30.16,ESE,116,10.1,10.1,57,0.00,,,0.00,VWS V13.01,2013-09-14 15:10:00,
2013-09-14 10:15:00,70.4,55.4,30.13,SE,128,4.0,4.0,59,0.00,,,0.00,VWS V13.01,2013-09-14 15:15:00,
2013-09-14 10:20:00,70.6,54.6,30.13,ENE,60,5.4,6.3,57,0.00,,,0.00,VWS V13.01,2013-09-14 15:20:00,
2013-09-14 10:25:00,71.3,56.2,30.13,ENE,78,5.4,5.4,59,0.00,,,0.00,VWS V13.01,2013-09-14 15:25:00,
2013-09-14 10:30:00,71.6,55.1,30.16,East,85,6.3,8.1,56,0.00,,,0.00,VWS V13.01,2013-09-14 15:30:00,
2013-09-14 10:35:00,71.6,55.1,30.16,ESE,122,6.3,6.3,56,0.00,,,0.00,VWS V13.01,2013-09-14 15:35:00,
2013-09-14 10:40:00,71.6,55.1,30.16,NE,47,5.8,5.8,56,0.00,,,0.00,VWS V13.01,2013-09-14 15:40:00,
2013-09-14 10:45:00,71.8,54.8,30.16,ENE,78,6.3,6.3,55,0.00,,,0.00,VWS V13.01,2013-09-14 15:45:00,
2013-09-14 10:50:00,72.0,54.5,30.16,ENE,78,6.7,6.7,54,0.00,,,0.00,VWS V13.01,2013-09-14 15:50:00,
2013-09-14 10:55:00,72.2,54.6,30.16,SE,130,5.4,10.5,54,0.00,,,0.00,VWS V13.01,2013-09-14 15:55:00,
2013-09-14 11:00:00,72.2,54.6,30.16,SE,127,5.8,5.8,54,0.00,,,0.00,VWS V13.01,2013-09-14 16:00:00,
2013-09-14 11:05:00,72.9,55.3,30.16,NNE,31,5.4,5.4,54,0.00,,,0.00,VWS V13.01,2013-09-14 16:05:00,
2013-09-14 11:10:00,73.4,55.3,30.16,ESE,107,6.3,6.3,53,0.00,,,0.00,VWS V13.01,2013-09-14 16:10:00,
2013-09-14 11:15:00,73.8,55.6,30.16,ESE,115,7.2,7.2,53,0.00,,,0.00,VWS V13.01,2013-09-14 16:15:00,
2013-09-14 11:20:00,73.4,55.3,30.16,East,93,5.8,5.8,53,0.00,,,0.00,VWS V13.01,2013-09-14 16:20:00,
2013-09-14 11:25:00,73.4,55.3,30.16,NNE,26,2.7,5.8,53,0.00,,,0.00,VWS V13.01,2013-09-14 16:25:00,
2013-09-14 11:30:00,73.8,55.6,30.16,East,80,4.0,5.8,53,0.00,,,0.00,VWS V13.01,2013-09-14 16:30:00,
2013-09-14 11:35:00,74.9,56.1,30.16,NE,38,4.0,5.4,52,0.00,,,0.00,VWS V13.01,2013-09-14 16:35:00,
2013-09-14 11:40:00,75.4,57.1,30.16,NE,38,5.8,5.8,53,0.00,,,0.00,VWS V13.01,2013-09-14 16:40:00,
2013-09-14 11:45:00,75.6,56.8,30.16,SE,138,3.1,6.3,52,0.00,,,0.00,VWS V13.01,2013-09-14 16:45:00,
2013-09-14 11:50:00,76.0,57.1,30.16,SSE,150,3.6,5.4,52,0.00,,,0.00,VWS V13.01,2013-09-14 16:50:00,
2013-09-14 11:55:00,76.0,56.5,30.16,ESE,122,3.1,6.3,51,0.00,,,0.00,VWS V13.01,2013-09-14 16:55:00,
2013-09-14 12:00:00,76.3,56.9,30.16,NE,55,5.4,5.4,51,0.00,,,0.00,VWS V13.01,2013-09-14 17:00:00,
2013-09-14 12:05:00,76.7,56.7,30.16,NNE,18,2.7,3.1,50,0.00,,,0.00,VWS V13.01,2013-09-14 17:05:00,
2013-09-14 12:10:00,76.5,56.5,30.16,East,100,7.6,7.6,50,0.00,,,0.00,VWS V13.01,2013-09-14 17:10:00,
2013-09-14 12:15:00,75.8,55.8,30.16,NE,44,6.3,6.3,50,0.00,,,0.00,VWS V13.01,2013-09-14 17:15:00,
2013-09-14 12:20:00,76.1,56.7,30.16,NE,36,4.9,5.4,51,0.00,,,0.00,VWS V13.01,2013-09-14 17:20:00,
2013-09-14 12:25:00,76.1,56.2,30.16,ESE,118,8.1,8.1,50,0.00,,,0.00,VWS V13.01,2013-09-14 17:25:00,
2013-09-14 12:30:00,76.1,56.2,30.13,SE,131,5.4,8.7,50,0.00,,,0.00,VWS V13.01,2013-09-14 17:30:00,
2013-09-14 12:35:00,76.0,56.0,30.13,ENE,60,4.0,8.1,50,0.00,,,0.00,VWS V13.01,2013-09-14 17:35:00,
2013-09-14 12:40:00,76.3,56.3,30.13,NE,38,4.9,6.3,50,0.00,,,0.00,VWS V13.01,2013-09-14 17:40:00,
2013-09-14 12:45:00,76.5,56.5,30.13,NE,49,3.6,3.6,50,0.00,,,0.00,VWS V13.01,2013-09-14 17:45:00,
2013-09-14 12:50:00,76.5,55.9,30.13,SE,125,4.9,5.8,49,0.00,,,0.00,VWS V13.01,2013-09-14 17:50:00,
2013-09-14 12:55:00,76.7,56.1,30.13,North,350,4.0,4.0,49,0.00,,,0.00,VWS V13.01,2013-09-14 17:55:00,
2013-09-14 13:00:00,76.9,56.3,30.13,SSW,209,6.3,7.2,49,0.00,,,0.00,VWS V13.01,2013-09-14 18:00:00,
2013-09-14 13:04:00,76.9,56.3,30.13,ENE,77,0.0,2.2,49,0.00,,,0.00,VWS V13.01,2013-09-14 18:04:00,
2013-09-14 13:09:00,77.4,56.8,30.13,SE,134,4.0,7.6,49,0.00,,,0.00,VWS V13.01,2013-09-14 18:09:00,
2013-09-14 13:14:00,77.4,56.8,30.13,NE,40,3.1,3.1,49,0.00,,,0.00,VWS V13.01,2013-09-14 18:14:00,
2013-09-14 13:19:00,77.4,56.8,30.13,South,180,4.5,4.9,49,0.00,,,0.00,VWS V13.01,2013-09-14 18:19:00,
2013-09-14 13:24:00,77.4,56.8,30.13,East,90,5.4,5.4,49,0.00,,,0.00,VWS V13.01,2013-09-14 18:24:00,
2013-09-14 13:29:00,77.4,56.8,30.13,SSE,150,3.6,3.6,49,0.00,,,0.00,VWS V13.01,2013-09-14 18:29:00,
2013-09-14 13:34:00,77.6,56.9,30.13,East,79,8.3,9.2,49,0.00,,,0.00,VWS V13.01,2013-09-14 18:34:00,
2013-09-14 13:39:00,77.4,56.8,30.13,SW,224,3.6,5.8,49,0.00,,,0.00,VWS V13.01,2013-09-14 18:39:00,
2013-09-14 13:44:00,77.2,56.6,30.13,ESE,114,5.8,5.8,49,0.00,,,0.00,VWS V13.01,2013-09-14 18:44:00,
2013-09-14 13:49:00,77.6,56.9,30.13,SE,143,5.4,6.3,49,0.00,,,0.00,VWS V13.01,2013-09-14 18:49:00,
2013-09-14 13:54:00,77.6,56.9,30.13,SE,143,8.3,8.3,49,0.00,,,0.00,VWS V13.01,2013-09-14 18:54:00,
2013-09-14 13:59:00,77.6,56.9,30.10,ESE,117,8.3,8.3,49,0.00,,,0.00,VWS V13.01,2013-09-14 18:59:00,
2013-09-14 14:04:00,77.9,57.3,30.10,South,183,3.1,4.9,49,0.00,,,0.00,VWS V13.01,2013-09-14 19:04:00,
2013-09-14 14:09:00,77.9,57.3,30.10,SE,128,5.4,5.4,49,0.00,,,0.00,VWS V13.01,2013-09-14 19:09:00,
2013-09-14 14:14:00,77.9,57.3,30.10,South,171,3.1,3.6,49,0.00,,,0.00,VWS V13.01,2013-09-14 19:14:00,
2013-09-14 14:19:00,78.5,57.8,30.10,SSW,196,4.0,4.5,49,0.00,,,0.00,VWS V13.01,2013-09-14 19:19:00,
2013-09-14 14:24:00,78.3,57.6,30.10,SSE,168,3.1,3.1,49,0.00,,,0.00,VWS V13.01,2013-09-14 19:24:00,
2013-09-14 14:29:00,78.3,57.6,30.07,SSW,206,2.7,2.7,49,0.00,,,0.00,VWS V13.01,2013-09-14 19:29:00,
2013-09-14 14:34:00,78.8,58.1,30.07,ESE,112,3.1,4.0,49,0.00,,,0.00,VWS V13.01,2013-09-14 19:34:00,
2013-09-14 14:39:00,79.7,58.9,30.07,NE,56,5.4,5.4,49,0.00,,,0.00,VWS V13.01,2013-09-14 19:39:00,
2013-09-14 14:44:00,79.9,58.5,30.07,South,183,3.1,5.8,48,0.00,,,0.00,VWS V13.01,2013-09-14 19:44:00,
2013-09-14 14:49:00,79.4,58.0,30.07,South,170,3.1,3.1,48,0.00,,,0.00,VWS V13.01,2013-09-14 19:49:00,
2013-09-14 14:54:00,79.7,58.9,30.07,South,173,2.2,2.7,49,0.00,,,0.00,VWS V13.01,2013-09-14 19:54:00,
2013-09-14 14:59:00,80.8,59.3,30.10,NNE,25,3.6,4.0,48,0.00,,,0.00,VWS V13.01,2013-09-14 19:59:00,
2013-09-14 15:04:00,81.9,59.7,30.10,WSW,245,3.1,3.6,47,0.00,,,0.00,VWS V13.01,2013-09-14 20:04:00,
2013-09-14 15:09:00,81.4,59.8,30.10,South,189,2.2,2.2,48,0.00,,,0.00,VWS V13.01,2013-09-14 20:09:00,
2013-09-14 15:14:00,81.2,59.7,30.10,ENE,61,2.7,3.1,48,0.00,,,0.00,VWS V13.01,2013-09-14 20:14:00,
2013-09-14 15:19:00,81.0,59.5,30.10,South,183,3.1,3.6,48,0.00,,,0.00,VWS V13.01,2013-09-14 20:19:00,
2013-09-14 15:24:00,80.5,59.0,30.10,SW,223,0.0,2.2,48,0.00,,,0.00,VWS V13.01,2013-09-14 20:24:00,
2013-09-14 15:29:00,80.6,59.2,30.07,ESE,109,6.3,8.1,48,0.00,,,0.00,VWS V13.01,2013-09-14 20:29:00,
2013-09-14 15:34:00,80.8,59.3,30.07,SSE,167,4.0,5.4,48,0.00,,,0.00,VWS V13.01,2013-09-14 20:34:00,
2013-09-14 15:39:00,80.1,58.7,30.07,ESE,119,5.4,8.3,48,0.00,,,0.00,VWS V13.01,2013-09-14 20:39:00,
2013-09-14 15:44:00,79.9,58.5,30.07,South,176,2.2,2.7,48,0.00,,,0.00,VWS V13.01,2013-09-14 20:44:00,
2013-09-14 15:49:00,80.3,58.8,30.07,South,177,4.0,4.0,48,0.00,,,0.00,VWS V13.01,2013-09-14 20:49:00,
2013-09-14 15:54:00,80.5,59.0,30.07,SE,129,2.7,4.0,48,0.00,,,0.00,VWS V13.01,2013-09-14 20:54:00,
2013-09-14 15:59:00,80.3,58.8,30.07,WSW,249,4.0,4.0,48,0.00,,,0.00,VWS V13.01,2013-09-14 20:59:00,
2013-09-14 16:04:00,80.8,59.3,30.07,SSE,160,5.8,7.6,48,0.00,,,0.00,VWS V13.01,2013-09-14 21:04:00,
2013-09-14 16:09:00,80.5,59.0,30.07,South,177,5.8,5.8,48,0.00,,,0.00,VWS V13.01,2013-09-14 21:09:00,
2013-09-14 16:14:00,80.5,59.0,30.04,South,180,6.3,6.3,48,0.00,,,0.00,VWS V13.01,2013-09-14 21:14:00,
2013-09-14 16:19:00,80.5,59.0,30.04,SSE,147,4.0,4.0,48,0.00,,,0.00,VWS V13.01,2013-09-14 21:19:00,
2013-09-14 16:24:00,80.6,59.2,30.04,SSE,150,5.4,5.4,48,0.00,,,0.00,VWS V13.01,2013-09-14 21:24:00,
2013-09-14 16:29:00,81.0,59.5,30.04,South,173,4.0,4.0,48,0.00,,,0.00,VWS V13.01,2013-09-14 21:29:00,
2013-09-14 16:34:00,80.5,59.0,30.04,SE,143,4.9,4.9,48,0.00,,,0.00,VWS V13.01,2013-09-14 21:34:00,
2013-09-14 16:39:00,79.9,58.5,30.04,SE,135,3.1,3.1,48,0.00,,,0.00,VWS V13.01,2013-09-14 21:39:00,
2013-09-14 16:44:00,79.7,58.3,30.04,SSE,168,3.1,3.1,48,0.00,,,0.00,VWS V13.01,2013-09-14 21:44:00,
2013-09-14 16:49:00,79.9,58.5,30.04,SW,236,3.1,3.1,48,0.00,,,0.00,VWS V13.01,2013-09-14 21:49:00,
2013-09-14 16:54:00,80.3,58.8,30.04,South,170,2.7,4.0,48,0.00,,,0.00,VWS V13.01,2013-09-14 21:54:00,
2013-09-14 16:59:00,79.9,58.5,30.04,SE,143,2.7,4.0,48,0.00,,,0.00,VWS V13.01,2013-09-14 21:59:00,
2013-09-14 17:04:00,79.6,58.2,30.04,South,169,3.1,4.0,48,0.00,,,0.00,VWS V13.01,2013-09-14 22:04:00,
2013-09-14 17:09:00,79.0,57.7,30.04,SSE,160,2.2,2.2,48,0.00,,,0.00,VWS V13.01,2013-09-14 22:09:00,
2013-09-14 17:14:00,79.0,57.7,30.04,South,172,6.3,6.3,48,0.00,,,0.00,VWS V13.01,2013-09-14 22:14:00,
2013-09-14 17:19:00,79.2,57.8,30.04,South,173,3.6,4.0,48,0.00,,,0.00,VWS V13.01,2013-09-14 22:19:00,
2013-09-14 17:24:00,79.6,58.2,30.04,South,177,4.0,4.0,48,0.00,,,0.00,VWS V13.01,2013-09-14 22:24:00,
2013-09-14 17:29:00,79.9,58.5,30.04,South,170,3.6,4.0,48,0.00,,,0.00,VWS V13.01,2013-09-14 22:29:00,
2013-09-14 17:34:00,79.9,58.5,30.04,SSW,195,4.9,6.3,48,0.00,,,0.00,VWS V13.01,2013-09-14 22:34:00,
2013-09-14 17:39:00,79.9,58.5,30.04,South,181,9.2,9.2,48,0.00,,,0.00,VWS V13.01,2013-09-14 22:39:00,
2013-09-14 17:44:00,79.7,58.3,30.04,SE,129,3.1,4.0,48,0.00,,,0.00,VWS V13.01,2013-09-14 22:44:00,
2013-09-14 17:49:00,79.7,58.3,30.04,SE,136,3.1,5.8,48,0.00,,,0.00,VWS V13.01,2013-09-14 22:49:00,
2013-09-14 17:54:00,79.7,58.3,30.04,SSE,152,3.6,4.5,48,0.00,,,0.00,VWS V13.01,2013-09-14 22:54:00,
2013-09-14 17:59:00,79.6,58.2,30.04,SSE,147,3.6,3.6,48,0.00,,,0.00,VWS V13.01,2013-09-14 22:59:00,
2013-09-14 18:04:00,79.4,58.0,30.04,SE,124,3.1,3.1,48,0.00,,,0.00,VWS V13.01,2013-09-14 23:04:00,
2013-09-14 18:09:00,79.4,58.0,30.04,SE,131,4.9,4.9,48,0.00,,,0.00,VWS V13.01,2013-09-14 23:09:00,
2013-09-14 18:14:00,79.2,57.8,30.04,SSE,167,2.7,2.7,48,0.00,,,0.00,VWS V13.01,2013-09-14 23:14:00,
2013-09-14 18:19:00,79.0,57.7,30.04,SSE,164,3.6,3.6,48,0.00,,,0.00,VWS V13.01,2013-09-14 23:19:00,
2013-09-14 18:24:00,78.8,57.5,30.04,ESE,115,4.9,4.9,48,0.00,,,0.00,VWS V13.01,2013-09-14 23:24:00,
2013-09-14 18:29:00,78.7,57.3,30.04,NE,51,3.1,3.1,48,0.00,,,0.00,VWS V13.01,2013-09-14 23:29:00,
2013-09-14 18:34:00,78.3,57.0,30.04,East,88,2.7,2.7,48,0.00,,,0.00,VWS V13.01,2013-09-14 23:34:00,
2013-09-14 18:39:00,77.9,57.3,30.04,ENE,67,0.0,0.0,49,0.00,,,0.00,VWS V13.01,2013-09-14 23:39:00,
2013-09-14 18:44:00,77.6,56.9,30.04,East,80,2.7,2.7,49,0.00,,,0.00,VWS V13.01,2013-09-14 23:44:00,
2013-09-14 18:49:00,77.2,56.6,30.04,East,101,3.1,3.1,49,0.00,,,0.00,VWS V13.01,2013-09-14 23:49:00,
2013-09-14 18:54:00,76.9,56.3,30.04,ENE,77,2.2,3.6,49,0.00,,,0.00,VWS V13.01,2013-09-14 23:54:00,
2013-09-14 18:59:00,76.5,55.9,30.04,ENE,67,2.7,2.7,49,0.00,,,0.00,VWS V13.01,2013-09-14 23:59:00,
2013-09-14 19:04:00,76.3,55.8,30.04,East,101,4.0,4.9,49,0.00,,,0.00,VWS V13.01,2013-09-15 00:04:00,
2013-09-14 19:09:00,76.0,55.5,30.04,East,97,4.0,4.0,49,0.00,,,0.00,VWS V13.01,2013-09-15 00:09:00,
2013-09-14 19:14:00,75.6,55.1,30.04,East,81,0.0,2.7,49,0.00,,,0.00,VWS V13.01,2013-09-15 00:14:00,
2013-09-14 19:19:00,75.2,54.8,30.04,ESE,112,3.1,3.1,49,0.00,,,0.00,VWS V13.01,2013-09-15 00:19:00,
2013-09-14 19:24:00,75.1,54.6,30.04,ESE,112,0.0,0.0,49,0.00,,,0.00,VWS V13.01,2013-09-15 00:24:00,
2013-09-14 19:29:00,74.7,54.3,30.04,East,88,2.7,2.7,49,0.00,,,0.00,VWS V13.01,2013-09-15 00:29:00,
2013-09-14 19:34:00,74.3,54.5,30.04,ENE,75,2.2,2.2,50,0.00,,,0.00,VWS V13.01,2013-09-15 00:34:00,
2013-09-14 19:39:00,73.8,54.0,30.04,ENE,68,0.0,2.7,50,0.00,,,0.00,VWS V13.01,2013-09-15 00:39:00,
2013-09-14 19:44:00,73.6,53.8,30.04,ENE,66,2.2,2.7,50,0.00,,,0.00,VWS V13.01,2013-09-15 00:44:00,
2013-09-14 19:48:00,73.3,53.5,30.07,East,98,0.0,0.0,50,0.00,,,0.00,VWS V13.01,2013-09-15 00:48:00,
2013-09-14 19:53:00,72.9,53.2,30.07,NE,56,2.2,2.7,50,0.00,,,0.00,VWS V13.01,2013-09-15 00:53:00,
2013-09-14 19:58:00,72.5,53.4,30.04,ENE,57,2.2,2.2,51,0.00,,,0.00,VWS V13.01,2013-09-15 00:58:00,
2013-09-14 20:03:00,72.0,52.9,30.04,NE,41,2.2,2.2,51,0.00,,,0.00,VWS V13.01,2013-09-15 01:03:00,
2013-09-14 20:08:00,71.5,52.9,30.04,NE,41,2.2,2.2,52,0.00,,,0.00,VWS V13.01,2013-09-15 01:08:00,
2013-09-14 20:13:00,70.9,53.0,30.04,NE,41,0.0,2.2,53,0.00,,,0.00,VWS V13.01,2013-09-15 01:13:00,
2013-09-14 20:18:00,70.4,53.5,30.07,NE,41,0.0,0.0,55,0.00,,,0.00,VWS V13.01,2013-09-15 01:18:00,
2013-09-14 20:23:00,70.0,53.6,30.07,NE,41,0.0,0.0,56,0.00,,,0.00,VWS V13.01,2013-09-15 01:23:00,
2013-09-14 20:28:00,69.5,53.6,30.07,NE,41,0.0,0.0,57,0.00,,,0.00,VWS V13.01,2013-09-15 01:28:00,
2013-09-14 20:33:00,68.9,53.6,30.07,NE,41,0.0,0.0,58,0.00,,,0.00,VWS V13.01,2013-09-15 01:33:00,
2013-09-14 20:38:00,68.6,54.2,30.07,NE,41,0.0,0.0,60,0.00,,,0.00,VWS V13.01,2013-09-15 01:38:00,
2013-09-14 20:43:00,68.0,54.1,30.04,NE,41,0.0,0.0,61,0.00,,,0.00,VWS V13.01,2013-09-15 01:43:00,
2013-09-14 20:48:00,67.5,53.6,30.04,NE,41,0.0,0.0,61,0.00,,,0.00,VWS V13.01,2013-09-15 01:48:00,
2013-09-14 20:53:00,67.1,53.7,30.04,NE,41,0.0,0.0,62,0.00,,,0.00,VWS V13.01,2013-09-15 01:53:00,
2013-09-14 20:58:00,66.4,53.5,30.04,NE,41,0.0,0.0,63,0.00,,,0.00,VWS V13.01,2013-09-15 01:58:00,
2013-09-14 21:03:00,65.5,53.0,30.07,NE,41,0.0,0.0,64,0.00,,,0.00,VWS V13.01,2013-09-15 02:03:00,
2013-09-14 21:08:00,65.0,52.5,30.07,NE,41,0.0,0.0,64,0.00,,,0.00,VWS V13.01,2013-09-15 02:08:00,
2013-09-14 21:13:00,64.4,52.0,30.07,NE,41,0.0,0.0,64,0.00,,,0.00,VWS V13.01,2013-09-15 02:13:00,
2013-09-14 21:18:00,64.3,52.3,30.07,NE,41,0.0,0.0,65,0.00,,,0.00,VWS V13.01,2013-09-15 02:18:00,
2013-09-14 21:23:00,63.7,52.6,30.07,NE,41,0.0,0.0,67,0.00,,,0.00,VWS V13.01,2013-09-15 02:23:00,
2013-09-14 21:28:00,63.4,52.2,30.07,NE,41,0.0,0.0,67,0.00,,,0.00,VWS V13.01,2013-09-15 02:28:00,
2013-09-14 21:33:00,63.0,52.3,30.07,NE,41,0.0,0.0,68,0.00,,,0.00,VWS V13.01,2013-09-15 02:33:00,
2013-09-14 21:38:00,62.6,52.3,30.07,NE,41,0.0,0.0,69,0.00,,,0.00,VWS V13.01,2013-09-15 02:38:00,
2013-09-14 21:43:00,62.5,52.2,30.07,NE,41,0.0,0.0,69,0.00,,,0.00,VWS V13.01,2013-09-15 02:43:00,
2013-09-14 21:48:00,62.3,52.4,30.07,NE,41,0.0,0.0,70,0.00,,,0.00,VWS V13.01,2013-09-15 02:48:00,
2013-09-14 21:53:00,62.5,52.2,30.07,NE,41,0.0,0.0,69,0.00,,,0.00,VWS V13.01,2013-09-15 02:53:00,
2013-09-14 21:58:00,62.8,51.7,30.07,NE,41,0.0,0.0,67,0.00,,,0.00,VWS V13.01,2013-09-15 02:58:00,
2013-09-14 22:03:00,63.2,51.7,30.10,NE,41,0.0,0.0,66,0.00,,,0.00,VWS V13.01,2013-09-15 03:03:00,
2013-09-14 22:08:00,63.4,51.8,30.10,NE,41,0.0,0.0,66,0.00,,,0.00,VWS V13.01,2013-09-15 03:08:00,
2013-09-14 22:13:00,63.5,53.2,30.10,North,2,0.0,0.0,69,0.00,,,0.00,VWS V13.01,2013-09-15 03:13:00,
2013-09-14 22:18:00,63.4,52.6,30.10,North,2,0.0,0.0,68,0.00,,,0.00,VWS V13.01,2013-09-15 03:18:00,
2013-09-14 22:23:00,63.2,52.5,30.10,North,2,0.0,0.0,68,0.00,,,0.00,VWS V13.01,2013-09-15 03:23:00,
2013-09-14 22:28:00,63.0,52.3,30.10,North,2,0.0,0.0,68,0.00,,,0.00,VWS V13.01,2013-09-15 03:28:00,
2013-09-14 22:33:00,62.8,52.5,30.10,North,2,0.0,0.0,69,0.00,,,0.00,VWS V13.01,2013-09-15 03:33:00,
2013-09-14 22:38:00,62.5,52.6,30.10,North,2,0.0,0.0,70,0.00,,,0.00,VWS V13.01,2013-09-15 03:38:00,
2013-09-14 22:43:00,61.9,52.4,30.10,North,2,0.0,0.0,71,0.00,,,0.00,VWS V13.01,2013-09-15 03:43:00,
2013-09-14 22:48:00,61.4,52.3,30.10,North,2,0.0,0.0,72,0.00,,,0.00,VWS V13.01,2013-09-15 03:48:00,
2013-09-14 22:53:00,61.0,51.9,30.10,North,2,0.0,0.0,72,0.00,,,0.00,VWS V13.01,2013-09-15 03:53:00,
2013-09-14 22:58:00,60.7,51.6,30.10,North,2,0.0,0.0,72,0.00,,,0.00,VWS V13.01,2013-09-15 03:58:00,
2013-09-14 23:01:00,60.5,51.4,30.10,North,2,0.0,0.0,72,0.00,,,0.00,VWS V13.01,2013-09-15 04:01:00,
2013-09-14 23:02:00,60.3,51.6,30.10,North,2,0.0,0.0,73,0.00,,,0.00,VWS V13.01,2013-09-15 04:02:00,
2013-09-14 23:07:00,60.1,51.5,30.10,North,2,0.0,0.0,73,0.00,,,0.00,VWS V13.01,2013-09-15 04:07:00,
2013-09-14 23:12:00,59.9,52.0,30.10,North,2,0.0,0.0,75,0.00,,,0.00,VWS V13.01,2013-09-15 04:12:00,
2013-09-14 23:17:00,59.6,52.0,30.10,North,2,0.0,0.0,76,0.00,,,0.00,VWS V13.01,2013-09-15 04:17:00,
2013-09-14 23:22:00,59.4,51.8,30.10,North,2,0.0,0.0,76,0.00,,,0.00,VWS V13.01,2013-09-15 04:22:00,
2013-09-14 23:27:00,59.2,51.7,30.10,North,2,0.0,0.0,76,0.00,,,0.00,VWS V13.01,2013-09-15 04:27:00,
2013-09-14 23:32:00,59.2,51.7,30.13,North,2,0.0,0.0,76,0.00,,,0.00,VWS V13.01,2013-09-15 04:32:00,
2013-09-14 23:37:00,58.9,51.7,30.13,North,2,0.0,0.0,77,0.00,,,0.00,VWS V13.01,2013-09-15 04:37:00,
2013-09-14 23:42:00,58.7,51.5,30.13,North,2,0.0,0.0,77,0.00,,,0.00,VWS V13.01,2013-09-15 04:42:00,
2013-09-14 23:47:00,58.3,51.2,30.10,North,2,0.0,0.0,77,0.00,,,0.00,VWS V13.01,2013-09-15 04:47:00,
2013-09-14 23:52:00,58.5,51.3,30.10,North,2,0.0,0.0,77,0.00,,,0.00,VWS V13.01,2013-09-15 04:52:00,
2013-09-14 23:57:00,58.7,51.5,30.10,North,2,0.0,0.0,77,0.00,,,0.00,VWS V13.01,2013-09-15 04:57:00,